Regional Weather Roundup
Issued by NWS Northern Indiana

Home | Current Version | Previous Version | Graphics & Text | Print | Product List | Glossary On
Versions: 1 2 3 4 5 6 7 8 9 10 11 12 13 14 15 16 17 18 19 20 21 22 23 24 25 26 27 28 29 30 31 32 33 34 35 36 37 38 39 40 41 42 43 44 45 46 47 48 49 50
000
ASUS43 KIWX 171100
RWRIWX

KIWX WEATHER ROUNDUP
NATIONAL WEATHER SERVICE NORTHERN INDIANA
600 AM EST WED DEC 17 2014

NOTE: "FAIR" INDICATES FEW OR NO CLOUDS BELOW 12,000 FEET WITH NO
SIGNIFICANT WEATHER AND/OR OBSTRUCTIONS TO VISIBILITY.

* THESE STATIONS ARE NOT UNDER NWS QUALITY CONTROL. THEY ALSO MAY NOT
  REPORT WEATHER SUCH AS PRECIPITATION OR FOG.

INZ001>027-171200-
NORTHERN INDIANA

CITY           SKY/WX    TMP DP  RH WIND       PRES   REMARKS
GARY*          CLOUDY    28  21  74 W17       30.20R WCI  16
SOUTH BEND     NOT AVBL
GOSHEN         CLOUDY    30  24  78 NW18      30.13R WCI  18
ANGOLA*        CLOUDY    30  27  86 W10       30.08R WCI  21
FORT WAYNE     CLOUDY    31  28  89 W13       30.13R WCI  21
PERU/GRISSOM   CLOUDY    29  29 100 W15G25    30.18R WCI  17

$$
INZ028>050-171200-
CENTRAL INDIANA

CITY           SKY/WX    TMP DP  RH WIND       PRES   REMARKS
LAFAYETTE      CLOUDY    26  23  88 W12       30.23R WCI  16
KOKOMO*        CLOUDY    28  23  80 W17       30.18R WCI  16
MUNCIE*        CLOUDY    30  25  81 W15G23    30.16S WCI  19
INDIANAPOLIS   CLOUDY    27  23  85 NW12      30.21S WCI  17

$$
MIZ043>046-050>051-056>058-064>065-071>073-077>080-171200-
SOUTHWEST LOWER MICHIGAN

CITY           SKY/WX    TMP DP  RH WIND       PRES   REMARKS
BATTLE CREEK   CLOUDY    32  23  69 NW20G29   30.06R WCI  20
BENTON HARBOR  CLOUDY    29  23  78 W17       30.15R WCI  17
COLDWATER*     CLOUDY    31  26  81 W13G21    30.07R WCI  21
HILLSDALE*     CLOUDY    31  26  80 W29G35    30.03R WCI  17
HOLLAND        CLOUDY    33  22  63 NW17G24   30.10R WCI  22
GRAND RAPIDS   CLOUDY    30  23  75 W17G28    30.05R WCI  18
KALAMAZOO      CLOUDY    31  23  72 NW14      30.09R WCI  21
STURGIS*       CLOUDY    30  25  80 NW15G22   30.09R WCI  19
THREE RIVERS*  CLOUDY    31  26  80 W15G24    30.11R WCI  20

$$
OHZ001>008-015>018-024>025-171200-
NORTHWEST OHIO

CITY           SKY/WX    TMP DP  RH WIND       PRES   REMARKS
FINDLAY        CLOUDY    34  29  82 W20G26    30.07R WCI  23
TOLEDO EXPRESS CLOUDY    34  25  69 W21G29    30.05R WCI  22
TOLEDO METCALF CLOUDY    35  26  69 W23G32    30.05R WCI  23
LIMA           CLOUDY    33  29  85 W21       30.10R WCI  21

$$
AND FOR LAKE MICHIGAN COASTAL AND OPEN LAKE BUOY OBSERVATIONS

STATION/POSITION TEMP    WIND        PRES    VSBY  WAVE
                 AIR SEA DIR/SP/G                  HT/PER
                 (F)     (DEG/KT/KT) (MB)    (MI)  (FT/S)
CALUMET HARBOR    27     250/  5/  8 1021.2R
SAINT JOSEPH      31     260/ 16/ 24 1021.7R

$$
&&



USA.gov is the U.S. government's official web portal to all federal, state and local government web resources and services.